DW6471 Wilmer AL US current weather conditions

sailwx.info

Wind from 193 at 3 knots gusting 9

Air temperature 33.9° C
Dewpoint 24.4° C

Last reported at 2019-Jul-18 21:03 UTC.
Time now 2019-Jul-18 21:28 UTC

Location: N 30°45' W 088°24'.
View on Google Maps.

See reports from other nearby stations

  
Tides and Currents Weather Stations Pressure Air Temp Water Temp Dewpoint Dewpoint Depression Visibility Wind Speed Wind Dir Waves Ship Positions
date/time (UTC)wind fromknots sea level pressurealtimeterstation pressurevisibilityair tempwater tempwave heightnotes
2019-Jul-18 21:08 120 2 gusting 9 33.3
2019-Jul-18 21:03 193 3 gusting 9 33.9
2019-Jul-18 20:58 160 2 gusting 6 33.9
2019-Jul-18 20:53 165 2 gusting 5 33.9
2019-Jul-18 20:48 164 2 gusting 6 33.9
2019-Jul-18 20:43 196 2 gusting 6 33.9
2019-Jul-18 20:38 059 2 gusting 6 34.4
2019-Jul-18 20:33 259 2 gusting 6 34.4
2019-Jul-18 20:28 086 1 gusting 6 34.4
2019-Jul-18 20:23 144 0 gusting 5 34.4
2019-Jul-18 20:18 182 1 gusting 5 33.9
2019-Jul-18 20:13 131 1 gusting 5 34.4
2019-Jul-18 20:08 230 1 gusting 5 34.4
2019-Jul-18 20:03 155 0 gusting 3 35.0
2019-Jul-18 19:58 220 0 gusting 2 35.0
2019-Jul-18 19:53 275 0 gusting 2 35.0
2019-Jul-18 19:48 255 0 gusting 2 35.0
2019-Jul-18 19:43 139 0 gusting 2 34.4
2019-Jul-18 19:38 250 0 gusting 1 33.9
2019-Jul-18 19:33 244 1 gusting 3 33.9
2019-Jul-18 19:28 221 1 gusting 5 34.4
2019-Jul-18 19:23 259 1 gusting 5 35.0
2019-Jul-18 19:18 206 0 gusting 5 34.4
2019-Jul-18 19:13 260 0 gusting 4 35.0
2019-Jul-18 19:08 159 0 gusting 3 34.4
2019-Jul-18 19:03 264 0 gusting 3 34.4
2019-Jul-18 18:58 194 1 gusting 4 35.0
2019-Jul-18 18:53 263 1 gusting 4 34.4
2019-Jul-18 18:48 147 0 gusting 4 34.4
2019-Jul-18 18:43 221 0 gusting 3 34.4
2019-Jul-18 18:38 311 0 gusting 3 33.9
2019-Jul-18 18:33 261 0 gusting 4 33.9
2019-Jul-18 18:28 337 1 gusting 4 33.3
2019-Jul-18 18:23 248 0 gusting 3 33.9
2019-Jul-18 18:18 096 33.9
2019-Jul-18 18:13 146 0 gusting 4 33.3
2019-Jul-18 18:08 255 0 gusting 4 33.9
2019-Jul-18 18:03 192 0 gusting 3 33.9
2019-Jul-18 17:58 355 0 gusting 2 33.9
2019-Jul-18 17:53 187 0 gusting 2 33.9
2019-Jul-18 17:48 189 0 gusting 3 33.3
2019-Jul-18 17:43 086 0 gusting 3 33.3
2019-Jul-18 17:38 146 33.3
2019-Jul-18 17:33 146 0 gusting 2 33.3
2019-Jul-18 17:28 221 32.8
2019-Jul-18 17:23 245 0 gusting 2 32.8
2019-Jul-18 17:18 259 32.8
2019-Jul-18 17:13 229 0 gusting 2 32.8
2019-Jul-18 17:08 102 0 gusting 2 32.8
2019-Jul-18 17:03 214 1 gusting 5 33.3
2019-Jul-18 16:58 205 1 gusting 5 33.3
2019-Jul-18 16:53 136 0 gusting 3 32.8
2019-Jul-18 16:48 065 0 gusting 1 32.2
2019-Jul-18 16:43 240 32.2
2019-Jul-18 16:38 231 0 gusting 2 32.8
2019-Jul-18 16:33 259 0 gusting 6 32.8
2019-Jul-18 16:28 253 0 gusting 6 32.8
2019-Jul-18 16:23 093 0 gusting 5 32.8
2019-Jul-18 16:18 209 0 gusting 5 32.8
2019-Jul-18 16:13 226 0 gusting 2 32.2
2019-Jul-18 16:08 238 0 gusting 3 32.2
2019-Jul-18 16:03 103 0 gusting 3 32.2
2019-Jul-18 15:58 120 0 gusting 2 32.2
2019-Jul-18 15:53 193 0 gusting 1 32.2
2019-Jul-18 15:48 144 0 gusting 3 32.2
2019-Jul-18 15:43 250 0 gusting 3 31.7
2019-Jul-18 15:38 169 1 gusting 5 31.7
2019-Jul-18 15:33 342 1 gusting 5 31.7
2019-Jul-18 15:28 003 0 gusting 4 31.7
2019-Jul-18 15:23 191 1 gusting 4 31.7
2019-Jul-18 15:18 259 0 gusting 2 31.7
2019-Jul-18 15:13 197 1 gusting 5 31.7
2019-Jul-18 15:08 242 0 gusting 5 31.7
2019-Jul-18 15:03 103 0 gusting 2 31.7
2019-Jul-18 14:58 184 0 gusting 2 31.7
2019-Jul-18 14:53 304 0 gusting 2 31.7
2019-Jul-18 14:48 242 31.1
2019-Jul-18 14:43 211 31.1
2019-Jul-18 14:38 290 0 gusting 2 30.6
2019-Jul-18 14:33 222 0 gusting 2 30.6
2019-Jul-18 14:28 249 0 gusting 2 30.0
2019-Jul-18 14:23 057 0 gusting 2 30.0
2019-Jul-18 14:18 352 0 gusting 2 30.0
2019-Jul-18 14:13 237 1 gusting 3 29.4
2019-Jul-18 14:08 357 0 gusting 3 29.4
2019-Jul-18 14:03 246 0 gusting 3 29.4
2019-Jul-18 13:58 271 0 gusting 3 28.9
2019-Jul-18 13:53 023 0 gusting 3 28.9
2019-Jul-18 13:48 250 0 gusting 3 28.9
2019-Jul-18 13:43 274 0 gusting 5 28.3
2019-Jul-18 13:38 233 0 gusting 5 27.8
2019-Jul-18 13:33 041 0 gusting 3 27.8
2019-Jul-18 13:28 243 0 gusting 2 27.8
2019-Jul-18 13:23 017 27.2
2019-Jul-18 13:18 349 0 gusting 4 26.7
2019-Jul-18 13:13 338 0 gusting 4 26.7
2019-Jul-18 13:08 351 0 gusting 3 26.1
2019-Jul-18 13:03 354 26.1
2019-Jul-18 12:58 349 25.6
2019-Jul-18 12:53 349 25.6
2019-Jul-18 12:48 002 25.6
2019-Jul-18 12:43 026 25.0
2019-Jul-18 12:38 004 25.0
2019-Jul-18 12:33 261 25.0
2019-Jul-18 12:28 262 25.0
2019-Jul-18 12:23 151 24.4
2019-Jul-18 12:18 129 24.4
2019-Jul-18 12:13 129 24.4
2019-Jul-18 12:08 129 24.4
2019-Jul-18 12:03 129 24.4
2019-Jul-18 11:58 129 23.9
2019-Jul-18 11:53 129 23.9
2019-Jul-18 11:48 129 23.9
2019-Jul-18 11:43 129 23.3
2019-Jul-18 11:34 129 22.8
2019-Jul-18 11:29 129 22.8
2019-Jul-18 11:24 129 22.8
2019-Jul-18 11:19 129 22.8
2019-Jul-18 11:14 129 22.8
2019-Jul-18 11:09 129 22.8
2019-Jul-18 11:04 129 23.3
2019-Jul-18 10:59 129 23.3
2019-Jul-18 10:54 129 23.3
2019-Jul-18 10:49 129 23.3
2019-Jul-18 10:44 129 23.3
2019-Jul-18 10:39 129 23.3
2019-Jul-18 10:34 129 23.3
2019-Jul-18 10:29 129 23.3
2019-Jul-18 10:24 129 23.3
2019-Jul-18 10:19 129 23.3
2019-Jul-18 10:14 129 23.3
2019-Jul-18 10:09 129 23.3
2019-Jul-18 10:04 129 23.3
2019-Jul-18 09:59 129 23.3
2019-Jul-18 09:54 129 23.3
2019-Jul-18 09:49 129 23.3
2019-Jul-18 09:44 129 23.3
2019-Jul-18 09:39 129 22.8
2019-Jul-18 09:34 129 23.3
2019-Jul-18 09:29 129 23.3
2019-Jul-18 09:24 129 23.3
2019-Jul-18 09:19 129 23.3
2019-Jul-18 09:14 129 23.3
2019-Jul-18 09:09 129 23.3
2019-Jul-18 09:04 129 23.3
2019-Jul-18 08:59 129 23.3
2019-Jul-18 08:54 129 23.3
2019-Jul-18 08:49 129 23.3
2019-Jul-18 08:44 129 23.3
2019-Jul-18 08:39 129 23.3
2019-Jul-18 08:34 129 23.3
2019-Jul-18 08:29 129 23.3
2019-Jul-18 08:24 129 23.3
2019-Jul-18 08:19 129 23.3
2019-Jul-18 08:14 129 23.3
2019-Jul-18 08:09 129 23.3
2019-Jul-18 08:04 129 23.3
2019-Jul-18 07:59 129 23.3
2019-Jul-18 07:54 129 23.3
2019-Jul-18 07:49 129 23.3
2019-Jul-18 07:44 129 23.3
2019-Jul-18 07:39 129 23.3
2019-Jul-18 07:34 129 23.3
2019-Jul-18 07:29 129 23.3
2019-Jul-18 07:24 129 23.3
2019-Jul-18 07:19 129 23.3
2019-Jul-18 07:14 129 23.3
2019-Jul-18 07:09 129 23.3
2019-Jul-18 07:04 129 23.3
2019-Jul-18 06:59 129 23.9
2019-Jul-18 06:54 129 23.9
2019-Jul-18 06:49 129 23.9
2019-Jul-18 06:44 129 23.9
2019-Jul-18 06:39 129 23.9
2019-Jul-18 06:34 129 23.9
2019-Jul-18 06:29 129 23.9
2019-Jul-18 06:24 129 23.9
2019-Jul-18 06:19 129 23.9
2019-Jul-18 06:14 129 23.9
2019-Jul-18 06:09 129 23.9
2019-Jul-18 06:04 129 23.9
2019-Jul-18 05:59 129 23.9
2019-Jul-18 05:54 129 23.9
2019-Jul-18 05:49 129 23.9
2019-Jul-18 05:44 129 24.4
2019-Jul-18 05:39 129 24.4
2019-Jul-18 05:34 129 24.4
2019-Jul-18 05:29 129 24.4
2019-Jul-18 05:24 129 24.4
2019-Jul-18 05:19 129 24.4
2019-Jul-18 05:14 129 24.4
2019-Jul-18 05:09 129 24.4
2019-Jul-18 05:04 129 24.4
2019-Jul-18 04:59 129 24.4
2019-Jul-18 04:54 129 25.0
2019-Jul-18 04:49 129 25.0
2019-Jul-18 04:44 129 25.0
2019-Jul-18 04:39 129 25.0
2019-Jul-18 04:34 129 25.0
2019-Jul-18 04:29 129 25.0
2019-Jul-18 04:24 129 25.0
2019-Jul-18 04:19 129 25.6
2019-Jul-18 04:14 129 25.6
2019-Jul-18 04:09 129 25.6
2019-Jul-18 04:04 129 25.6
2019-Jul-18 03:59 129 25.6
2019-Jul-18 03:54 129 25.6
2019-Jul-18 03:49 129 25.6
2019-Jul-18 03:44 129 25.6
2019-Jul-18 03:39 129 25.6
2019-Jul-18 03:34 129 25.6
2019-Jul-18 03:29 131 26.1
2019-Jul-18 03:24 119 26.1
2019-Jul-18 03:19 119 26.1
2019-Jul-18 03:14 119 26.1
2019-Jul-18 03:09 208 26.1
2019-Jul-18 03:04 208 26.1
2019-Jul-18 02:59 208 26.7
2019-Jul-18 02:54 207 26.7
2019-Jul-18 02:49 141 26.7
2019-Jul-18 02:44 150 26.7
2019-Jul-18 02:39 141 26.7
2019-Jul-18 02:34 172 26.7
2019-Jul-18 02:29 203 26.7
2019-Jul-18 02:24 204 26.7
2019-Jul-18 02:19 167 26.7
2019-Jul-18 02:14 167 26.7
2019-Jul-18 02:09 134 26.7
2019-Jul-18 02:04 093 27.2
2019-Jul-18 01:59 131 27.2
2019-Jul-18 01:53 127 27.2
2019-Jul-18 01:49 168 27.2
2019-Jul-18 01:43 186 27.2
2019-Jul-18 01:38 117 27.2
2019-Jul-18 01:33 178 27.8
2019-Jul-18 01:28 193 27.8
2019-Jul-18 01:23 201 27.8
2019-Jul-18 01:18 200 27.8
2019-Jul-18 01:13 161 27.8
2019-Jul-18 01:08 201 28.3
2019-Jul-18 01:03 207 28.3
2019-Jul-18 00:58 211 28.3
2019-Jul-18 00:53 136 28.3
2019-Jul-18 00:48 191 28.9
2019-Jul-18 00:43 207 28.9
2019-Jul-18 00:38 149 0 gusting 3 28.9
2019-Jul-18 00:33 158 0 gusting 3 29.4
2019-Jul-18 00:28 148 29.4
2019-Jul-18 00:23 195 29.4
2019-Jul-18 00:18 189 0 gusting 3 30.0
2019-Jul-18 00:13 107 0 gusting 3 30.0
2019-Jul-18 00:08 170 0 gusting 4 30.6
2019-Jul-18 00:03 188 0 gusting 4 30.6
2019-Jul-17 23:58 203 0 gusting 2 30.6
2019-Jul-17 23:53 205 0 gusting 4 30.6
2019-Jul-17 23:43 133 0 gusting 4 31.1
2019-Jul-17 23:38 155 0 gusting 3 31.1
2019-Jul-17 23:33 205 1 gusting 6 31.1
2019-Jul-17 23:28 149 0 gusting 6 31.7
2019-Jul-17 23:23 214 0 gusting 5 31.7
2019-Jul-17 23:18 222 1 gusting 5 31.7
2019-Jul-17 23:13 146 1 gusting 4 31.7
2019-Jul-17 23:08 183 1 gusting 3 32.2
2019-Jul-17 23:03 243 1 gusting 6 32.2
2019-Jul-17 22:58 094 1 gusting 6 32.2
2019-Jul-17 22:53 150 1 gusting 5 32.8
2019-Jul-17 22:48 146 1 gusting 5 32.8
2019-Jul-17 22:43 183 0 gusting 5 32.8
2019-Jul-17 22:38 236 0 gusting 4 33.3
2019-Jul-17 22:33 104 0 gusting 4 33.3
2019-Jul-17 22:28 182 0 gusting 2 33.9
2019-Jul-17 22:23 198 0 gusting 2 33.9
2019-Jul-17 22:18 189 0 gusting 3 33.9
2019-Jul-17 22:13 172 0 gusting 3 33.9
2019-Jul-17 22:08 078 33.9
2019-Jul-17 22:03 245 0 gusting 2 33.3
2019-Jul-17 21:58 260 0 gusting 4 33.9
2019-Jul-17 21:53 259 1 gusting 4 34.4
2019-Jul-17 21:48 253 0 gusting 3 34.4
2019-Jul-17 21:43 120 0 gusting 2 34.4
2019-Jul-17 21:38 313 0 gusting 4 34.4
2019-Jul-17 21:33 240 0 gusting 4 34.4
2019-Jul-17 21:28 271 35.0
2019-Jul-17 21:23 210 0 gusting 3 34.4
2019-Jul-17 21:18 153 0 gusting 4 34.4
2019-Jul-17 21:13 121 1 gusting 4 34.4
2019-Jul-17 21:08 179 1 gusting 4 33.9
2019-Jul-17 21:03 249 0 gusting 1 34.4
2019-Jul-17 20:58 233 34.4
2019-Jul-17 20:53 245 0 gusting 3 34.4
2019-Jul-17 20:48 335 0 gusting 3 34.4
2019-Jul-17 20:43 033 0 gusting 2 35.0
2019-Jul-17 20:38 212 0 gusting 2 35.0
2019-Jul-17 20:33 214 0 gusting 3 35.0
2019-Jul-17 20:28 249 0 gusting 3 35.0
2019-Jul-17 20:23 225 0 gusting 3 35.0
2019-Jul-17 20:18 184 0 gusting 5 34.4
2019-Jul-17 20:13 254 1 gusting 5 34.4
2019-Jul-17 20:08 137 0 gusting 5 34.4
2019-Jul-17 20:03 264 0 gusting 6 34.4
2019-Jul-17 19:58 129 1 gusting 6 34.4
2019-Jul-17 19:53 311 1 gusting 4 34.4
2019-Jul-17 19:48 244 0 gusting 4 33.9
2019-Jul-17 19:43 115 34.4
2019-Jul-17 19:38 257 0 gusting 2 33.9
2019-Jul-17 19:33 229 0 gusting 2 33.3
2019-Jul-17 19:28 281 0 gusting 3 33.3
2019-Jul-17 19:23 133 0 gusting 3 33.3
2019-Jul-17 19:18 169 1 gusting 3 33.9
2019-Jul-17 19:13 140 1 gusting 6 33.3
2019-Jul-17 19:08 260 0 gusting 6 33.9
2019-Jul-17 19:03 117 1 gusting 6 33.9
2019-Jul-17 18:58 205 1 gusting 6 33.9
2019-Jul-17 18:53 151 0 gusting 5 33.9
2019-Jul-17 18:48 337 0 gusting 4 33.3
2019-Jul-17 18:43 334 0 gusting 4 33.3
2019-Jul-17 18:38 095 32.8
2019-Jul-17 18:33 117 32.2
2019-Jul-17 18:28 195 0 gusting 5 32.2
2019-Jul-17 18:23 257 0 gusting 5 32.8
2019-Jul-17 18:18 196 0 gusting 4 32.8
2019-Jul-17 18:13 025 0 gusting 4 32.2
2019-Jul-17 18:08 252 31.7
2019-Jul-17 18:03 079 0 gusting 2 31.7
2019-Jul-17 17:58 114 0 gusting 2 32.2
2019-Jul-17 17:53 283 1 gusting 6 31.7
2019-Jul-17 17:48 088 1 gusting 6 31.7
2019-Jul-17 17:43 122 0 gusting 5 32.2
2019-Jul-17 17:38 266 1 gusting 5 32.2
2019-Jul-17 17:33 030 0 gusting 2 32.2
2019-Jul-17 17:28 329 32.2
2019-Jul-17 17:23 163 0 gusting 3 32.2
2019-Jul-17 17:18 279 1 gusting 6 32.2
2019-Jul-17 17:13 182 1 gusting 6 32.2
2019-Jul-17 17:08 274 0 gusting 3 32.2
2019-Jul-17 17:03 068 0 gusting 2 31.7
2019-Jul-17 16:58 276 0 gusting 2 32.2
2019-Jul-17 16:53 240 0 gusting 2 32.2
2019-Jul-17 16:48 191 0 gusting 2 32.2
2019-Jul-17 16:43 318 1 gusting 6 32.2
2019-Jul-17 16:38 106 1 gusting 6 31.7
2019-Jul-17 16:33 257 1 gusting 5 31.7
2019-Jul-17 16:28 287 1 gusting 5 31.7
2019-Jul-17 16:23 243 0 gusting 4 31.7
2019-Jul-17 16:18 266 0 gusting 4 31.7
2019-Jul-17 16:13 250 0 gusting 3 31.7
2019-Jul-17 16:08 207 0 gusting 3 31.7
2019-Jul-17 16:03 127 0 gusting 3 31.1
2019-Jul-17 15:58 200 1 gusting 3 30.6
2019-Jul-17 15:53 251 1 gusting 5 31.1
2019-Jul-17 15:48 130 1 gusting 5 31.1
2019-Jul-17 15:43 103 0 gusting 5 30.6
2019-Jul-17 15:38 188 30.6
2019-Jul-17 15:33 243 30.0
2019-Jul-17 15:28 243 0 gusting 3 30.0
2019-Jul-17 15:23 330 0 gusting 3 30.6
2019-Jul-17 15:18 232 0 gusting 4 30.6
2019-Jul-17 15:08 209 0 gusting 3 30.0
2019-Jul-17 15:03 255 0 gusting 3 29.4
2019-Jul-17 14:58 356 30.0
2019-Jul-17 14:53 347 29.4
2019-Jul-17 14:48 226 28.9
2019-Jul-17 14:43 261 0 gusting 2 28.3
2019-Jul-17 14:38 267 1 gusting 3 28.3
2019-Jul-17 14:33 338 0 gusting 6 28.9
2019-Jul-17 14:28 326 0 gusting 6 28.3
2019-Jul-17 14:23 293 28.3
2019-Jul-17 14:18 245 0 gusting 3 27.8
2019-Jul-17 14:13 275 0 gusting 3 27.8
2019-Jul-17 14:08 311 0 gusting 3 27.8
2019-Jul-17 14:03 003 0 gusting 3 27.8
2019-Jul-17 13:58 344 0 gusting 3 27.8
2019-Jul-17 13:53 261 0 gusting 2 27.2
2019-Jul-17 13:48 252 27.2
2019-Jul-17 13:43 351 26.7
2019-Jul-17 13:38 266 26.7
2019-Jul-17 13:33 200 26.1
2019-Jul-17 13:28 330 26.1
2019-Jul-17 13:23 229 25.6
2019-Jul-17 13:18 352 25.6
2019-Jul-17 13:13 327 25.6
2019-Jul-17 13:08 336 25.6
2019-Jul-17 13:03 296 25.6
2019-Jul-17 12:58 176 25.0
2019-Jul-17 12:53 176 25.0
2019-Jul-17 12:48 176 25.0
2019-Jul-17 12:43 176 25.0
2019-Jul-17 12:38 176 24.4
2019-Jul-17 12:33 176 24.4
2019-Jul-17 12:28 176 24.4
2019-Jul-17 12:23 176 23.9
2019-Jul-17 12:18 176 23.9
2019-Jul-17 12:13 176 23.9
2019-Jul-17 12:08 176 23.3
2019-Jul-17 12:03 176 23.3
2019-Jul-17 11:58 176 23.3
2019-Jul-17 11:53 176 23.3
2019-Jul-17 11:48 176 23.3
2019-Jul-17 11:43 176 22.8
2019-Jul-17 11:38 176 22.8
2019-Jul-17 11:33 176 22.2
2019-Jul-17 11:28 176 22.2
2019-Jul-17 11:23 176 22.2
2019-Jul-17 11:18 176 22.2
2019-Jul-17 11:13 176 22.2
2019-Jul-17 11:08 176 22.2
2019-Jul-17 11:03 176 22.2
2019-Jul-17 10:58 176 22.2
2019-Jul-17 10:53 176 22.2
2019-Jul-17 10:48 176 22.8
2019-Jul-17 10:43 176 22.8
2019-Jul-17 10:38 176 22.8
2019-Jul-17 10:33 176 22.8
2019-Jul-17 10:28 176 22.8
2019-Jul-17 10:23 176 22.8
2019-Jul-17 10:18 176 22.8
2019-Jul-17 10:13 176 22.8
2019-Jul-17 10:08 176 22.8
2019-Jul-17 10:03 176 22.8
2019-Jul-17 09:58 176 22.8
2019-Jul-17 09:53 176 22.8
2019-Jul-17 09:48 176 22.8
2019-Jul-17 09:43 176 22.8
2019-Jul-17 09:38 176 22.8
2019-Jul-17 09:33 176 22.8
2019-Jul-17 09:28 176 23.3
2019-Jul-17 09:23 176 23.3
2019-Jul-17 09:18 176 23.3
2019-Jul-17 09:13 176 23.3
2019-Jul-17 09:08 176 23.3
2019-Jul-17 09:03 176 23.3
2019-Jul-17 08:58 176 23.3
2019-Jul-17 08:53 176 23.3
2019-Jul-17 08:48 176 23.3
2019-Jul-17 08:43 176 23.3
2019-Jul-17 08:38 176 23.3
2019-Jul-17 08:33 176 23.3
2019-Jul-17 08:28 176 23.3
2019-Jul-17 08:23 176 23.3
2019-Jul-17 08:18 176 23.3
2019-Jul-17 08:13 176 23.3
2019-Jul-17 08:08 176 23.3
2019-Jul-17 08:03 176 23.3
2019-Jul-17 07:58 176 23.3
2019-Jul-17 07:53 176 23.3
2019-Jul-17 07:48 176 23.3
2019-Jul-17 07:43 176 23.3
2019-Jul-17 07:38 176 23.3
2019-Jul-17 07:33 176 23.9
2019-Jul-17 07:28 176 23.9
2019-Jul-17 07:23 176 23.9
2019-Jul-17 07:18 176 23.9
2019-Jul-17 07:13 176 23.9
2019-Jul-17 07:08 176 23.9
2019-Jul-17 07:03 176 23.9
2019-Jul-17 06:58 176 23.3
2019-Jul-17 06:53 176 23.9
2019-Jul-17 06:48 176 23.9
2019-Jul-17 06:43 176 23.9
2019-Jul-17 06:38 176 23.9
2019-Jul-17 06:33 176 23.9
2019-Jul-17 06:28 176 23.9
2019-Jul-17 06:23 176 23.9
2019-Jul-17 06:18 176 24.4
2019-Jul-17 06:13 176 23.9
2019-Jul-17 06:08 176 23.9
2019-Jul-17 06:03 176 23.9
2019-Jul-17 05:58 176 23.9
2019-Jul-17 05:53 176 23.9
2019-Jul-17 05:48 176 24.4
2019-Jul-17 05:43 176 24.4
2019-Jul-17 05:38 176 24.4
2019-Jul-17 05:33 176 24.4
2019-Jul-17 05:28 176 24.4
2019-Jul-17 05:23 176 24.4
2019-Jul-17 05:18 176 24.4
2019-Jul-17 05:13 176 24.4
2019-Jul-17 05:08 176 24.4
2019-Jul-17 05:03 176 24.4
2019-Jul-17 04:58 176 24.4
2019-Jul-17 04:53 176 24.4
2019-Jul-17 04:48 176 24.4
2019-Jul-17 04:43 176 24.4
2019-Jul-17 04:38 176 24.4
2019-Jul-17 04:33 176 25.0
2019-Jul-17 04:28 176 25.0
2019-Jul-17 04:23 176 25.0
2019-Jul-17 04:17 176 25.0
2019-Jul-17 04:12 176 25.0
2019-Jul-17 04:08 201 25.0
2019-Jul-17 04:03 203 25.0
2019-Jul-17 03:57 203 25.6
2019-Jul-17 03:53 203 25.6
2019-Jul-17 03:48 203 25.6
2019-Jul-17 03:42 191 25.6
2019-Jul-17 03:37 191 25.6
2019-Jul-17 03:32 191 25.6
2019-Jul-17 03:27 215 25.6
2019-Jul-17 03:22 108 25.6
2019-Jul-17 03:17 108 25.6
2019-Jul-17 03:12 108 25.6
2019-Jul-17 03:07 108 25.6
2019-Jul-17 03:02 108 25.6
2019-Jul-17 02:57 108 25.6
2019-Jul-17 02:52 108 25.6
2019-Jul-17 02:47 108 25.6
2019-Jul-17 02:42 119 25.6
2019-Jul-17 02:37 119 25.6
2019-Jul-17 02:32 119 25.6
2019-Jul-17 02:27 118 25.6
2019-Jul-17 02:22 119 25.6
2019-Jul-17 02:17 119 25.6
2019-Jul-17 02:12 118 25.6
2019-Jul-17 02:07 119 26.1
2019-Jul-17 02:02 119 26.1
2019-Jul-17 01:57 119 26.1
2019-Jul-17 01:52 118 26.1
2019-Jul-17 01:47 119 26.1
2019-Jul-17 01:42 119 26.1
2019-Jul-17 01:37 139 26.7
2019-Jul-17 01:32 150 26.7
2019-Jul-17 01:27 150 26.7
2019-Jul-17 01:22 150 26.7
2019-Jul-17 01:17 150 26.7
2019-Jul-17 01:12 150 27.2
2019-Jul-17 01:07 150 27.2
2019-Jul-17 01:02 150 27.8
2019-Jul-17 00:57 150 27.8
2019-Jul-17 00:52 150 27.8
2019-Jul-17 00:47 150 28.3
2019-Jul-17 00:42 150 28.3
2019-Jul-17 00:37 150 28.3
2019-Jul-17 00:32 150 28.9
2019-Jul-17 00:27 150 28.9
2019-Jul-17 00:22 186 29.4
2019-Jul-17 00:17 164 29.4
2019-Jul-17 00:12 198 29.4
2019-Jul-17 00:07 200 29.4
2019-Jul-17 00:02 158 0 gusting 3 30.0
2019-Jul-16 23:57 274 0 gusting 2 30.0
2019-Jul-16 23:52 157 0 gusting 2 30.0
2019-Jul-16 23:47 169 0 gusting 4 30.0
2019-Jul-16 23:42 197 1 gusting 4 30.6
2019-Jul-16 23:37 150 1 gusting 4 30.6
2019-Jul-16 23:32 214 1 gusting 4 30.6
2019-Jul-16 23:27 202 0 gusting 3 30.6
2019-Jul-16 23:22 141 1 gusting 6 30.6
2019-Jul-16 23:17 108 1 gusting 6 30.6
2019-Jul-16 23:12 121 1 gusting 4 31.1
2019-Jul-16 23:07 225 1 gusting 5 31.1
2019-Jul-16 23:02 089 1 gusting 5 31.1
2019-Jul-16 22:57 051 1 gusting 5 31.1
2019-Jul-16 22:52 117 1 gusting 5 31.7
2019-Jul-16 22:47 077 1 gusting 5 31.7
2019-Jul-16 22:42 131 2 gusting 6 31.7
2019-Jul-16 22:37 097 2 gusting 6 32.2
2019-Jul-16 22:32 110 2 gusting 6 32.2
2019-Jul-16 22:27 191 1 gusting 6 32.8
2019-Jul-16 22:22 128 1 gusting 5 32.8
2019-Jul-16 22:17 167 2 gusting 6 32.8
2019-Jul-16 22:12 133 2 gusting 6 32.8
2019-Jul-16 22:07 175 2 gusting 7 32.8
2019-Jul-16 22:02 136 2 gusting 7 32.8
2019-Jul-16 21:57 203 2 gusting 7 32.8
2019-Jul-16 21:52 184 2 gusting 7 33.3
2019-Jul-16 21:47 094 2 gusting 6 33.3
2019-Jul-16 21:42 186 1 gusting 5 33.3
2019-Jul-16 21:37 187 2 gusting 6 33.3
2019-Jul-16 21:32 158 2 gusting 6 33.3
2019-Jul-16 21:27 179 2 gusting 6 33.3
2019-Jul-16 21:22 178 2 gusting 6 33.3
2019-Jul-16 21:17 087 2 gusting 6 33.3
2019-Jul-16 21:12 176 1 gusting 6 33.3
2019-Jul-16 21:07 267 1 gusting 6 33.3
2019-Jul-16 21:02 186 2 gusting 5 33.3